<?xml version="1.0"?>
<gpx xmlns="http://www.topografix.com/GPX/1/1" xmlns:xsi="http://www.w3.org/2001/XMLSchema-instance" version="1.1" creator="GPX RubyGem 1.0.0 -- http://dougfales.github.io/gpx/" xsi:schemaLocation="http://www.topografix.com/GPX/1/1 http://www.topografix.com/GPX/1/1/gpx.xsd">
  <metadata>
    <name/>
    <time>2026-05-03T23:51:57+00:00</time>
    <bound minlat="90.0" minlon="180.0" maxlat="-90.0" maxlon="-180.0"/>
  </metadata>
  <trk>
    <name/>
    <trkseg>
      <trkpt lat="38.704234" lon="-9.25675">
        <time>1970-01-01T00:00:00+00:00</time>
        <ele>11.0</ele>
      </trkpt>
      <trkpt lat="38.704337" lon="-9.256788">
        <time>1970-01-01T00:00:00+00:00</time>
        <ele>10.0</ele>
      </trkpt>
      <trkpt lat="38.704305" lon="-9.256934">
        <time>1970-01-01T00:00:00+00:00</time>
        <ele>11.0</ele>
      </trkpt>
      <trkpt lat="38.705078" lon="-9.257173">
        <time>1970-01-01T00:00:00+00:00</time>
        <ele>12.0</ele>
      </trkpt>
      <trkpt lat="38.705084" lon="-9.257411">
        <time>1970-01-01T00:00:00+00:00</time>
        <ele>14.0</ele>
      </trkpt>
      <trkpt lat="38.704933" lon="-9.257548">
        <time>1970-01-01T00:00:00+00:00</time>
        <ele>16.0</ele>
      </trkpt>
      <trkpt lat="38.704778" lon="-9.257626">
        <time>1970-01-01T00:00:00+00:00</time>
        <ele>16.0</ele>
      </trkpt>
      <trkpt lat="38.704579" lon="-9.257803">
        <time>1970-01-01T00:00:00+00:00</time>
        <ele>21.0</ele>
      </trkpt>
      <trkpt lat="38.704409" lon="-9.257917">
        <time>1970-01-01T00:00:00+00:00</time>
        <ele>25.0</ele>
      </trkpt>
      <trkpt lat="38.703821" lon="-9.258113">
        <time>1970-01-01T00:00:00+00:00</time>
        <ele>34.0</ele>
      </trkpt>
      <trkpt lat="38.703564" lon="-9.25799">
        <time>1970-01-01T00:00:00+00:00</time>
        <ele>32.0</ele>
      </trkpt>
      <trkpt lat="38.703265" lon="-9.25794">
        <time>1970-01-01T00:00:00+00:00</time>
        <ele>32.0</ele>
      </trkpt>
      <trkpt lat="38.703225" lon="-9.257933">
        <time>1970-01-01T00:00:00+00:00</time>
        <ele>32.0</ele>
      </trkpt>
      <trkpt lat="38.703195" lon="-9.257973">
        <time>1970-01-01T00:00:00+00:00</time>
        <ele>34.0</ele>
      </trkpt>
      <trkpt lat="38.703235" lon="-9.258087">
        <time>1970-01-01T00:00:00+00:00</time>
        <ele>39.0</ele>
      </trkpt>
      <trkpt lat="38.70344" lon="-9.258484">
        <time>1970-01-01T00:00:00+00:00</time>
        <ele>52.0</ele>
      </trkpt>
      <trkpt lat="38.703334" lon="-9.258444">
        <time>1970-01-01T00:00:00+00:00</time>
        <ele>52.0</ele>
      </trkpt>
      <trkpt lat="38.703036" lon="-9.258283">
        <time>1970-01-01T00:00:00+00:00</time>
        <ele>47.0</ele>
      </trkpt>
      <trkpt lat="38.702793" lon="-9.258101">
        <time>1970-01-01T00:00:00+00:00</time>
        <ele>41.0</ele>
      </trkpt>
      <trkpt lat="38.702764" lon="-9.258079">
        <time>1970-01-01T00:00:00+00:00</time>
        <ele>40.0</ele>
      </trkpt>
      <trkpt lat="38.702442" lon="-9.25817">
        <time>1970-01-01T00:00:00+00:00</time>
        <ele>46.0</ele>
      </trkpt>
      <trkpt lat="38.701705" lon="-9.25817">
        <time>1970-01-01T00:00:00+00:00</time>
        <ele>49.0</ele>
      </trkpt>
      <trkpt lat="38.701381" lon="-9.25813">
        <time>1970-01-01T00:00:00+00:00</time>
        <ele>49.0</ele>
      </trkpt>
      <trkpt lat="38.701278" lon="-9.258149">
        <time>1970-01-01T00:00:00+00:00</time>
        <ele>47.0</ele>
      </trkpt>
      <trkpt lat="38.70127" lon="-9.258179">
        <time>1970-01-01T00:00:00+00:00</time>
        <ele>48.0</ele>
      </trkpt>
      <trkpt lat="38.70122" lon="-9.258422">
        <time>1970-01-01T00:00:00+00:00</time>
        <ele>48.0</ele>
      </trkpt>
      <trkpt lat="38.701239" lon="-9.258564">
        <time>1970-01-01T00:00:00+00:00</time>
        <ele>49.0</ele>
      </trkpt>
      <trkpt lat="38.701228" lon="-9.258653">
        <time>1970-01-01T00:00:00+00:00</time>
        <ele>49.0</ele>
      </trkpt>
      <trkpt lat="38.701106" lon="-9.259318">
        <time>1970-01-01T00:00:00+00:00</time>
        <ele>44.0</ele>
      </trkpt>
      <trkpt lat="38.701073" lon="-9.259308">
        <time>1970-01-01T00:00:00+00:00</time>
        <ele>43.0</ele>
      </trkpt>
      <trkpt lat="38.701043" lon="-9.259466">
        <time>1970-01-01T00:00:00+00:00</time>
        <ele>41.0</ele>
      </trkpt>
      <trkpt lat="38.701039" lon="-9.259608">
        <time>1970-01-01T00:00:00+00:00</time>
        <ele>39.0</ele>
      </trkpt>
      <trkpt lat="38.70101" lon="-9.25975">
        <time>1970-01-01T00:00:00+00:00</time>
        <ele>37.0</ele>
      </trkpt>
      <trkpt lat="38.70098" lon="-9.259878">
        <time>1970-01-01T00:00:00+00:00</time>
        <ele>34.0</ele>
      </trkpt>
      <trkpt lat="38.700955" lon="-9.259937">
        <time>1970-01-01T00:00:00+00:00</time>
        <ele>33.0</ele>
      </trkpt>
      <trkpt lat="38.70091" lon="-9.259984">
        <time>1970-01-01T00:00:00+00:00</time>
        <ele>31.0</ele>
      </trkpt>
      <trkpt lat="38.700884" lon="-9.260135">
        <time>1970-01-01T00:00:00+00:00</time>
        <ele>28.0</ele>
      </trkpt>
      <trkpt lat="38.700786" lon="-9.26012">
        <time>1970-01-01T00:00:00+00:00</time>
        <ele>28.0</ele>
      </trkpt>
      <trkpt lat="38.700335" lon="-9.260065">
        <time>1970-01-01T00:00:00+00:00</time>
        <ele>24.0</ele>
      </trkpt>
      <trkpt lat="38.700228" lon="-9.260059">
        <time>1970-01-01T00:00:00+00:00</time>
        <ele>22.0</ele>
      </trkpt>
      <trkpt lat="38.700114" lon="-9.260085">
        <time>1970-01-01T00:00:00+00:00</time>
        <ele>18.0</ele>
      </trkpt>
      <trkpt lat="38.700227" lon="-9.260152">
        <time>1970-01-01T00:00:00+00:00</time>
        <ele>21.0</ele>
      </trkpt>
      <trkpt lat="38.700337" lon="-9.260145">
        <time>1970-01-01T00:00:00+00:00</time>
        <ele>24.0</ele>
      </trkpt>
      <trkpt lat="38.700779" lon="-9.260195">
        <time>1970-01-01T00:00:00+00:00</time>
        <ele>27.0</ele>
      </trkpt>
      <trkpt lat="38.700742" lon="-9.26056">
        <time>1970-01-01T00:00:00+00:00</time>
        <ele>24.0</ele>
      </trkpt>
      <trkpt lat="38.700763" lon="-9.260675">
        <time>1970-01-01T00:00:00+00:00</time>
        <ele>23.0</ele>
      </trkpt>
      <trkpt lat="38.700819" lon="-9.260834">
        <time>1970-01-01T00:00:00+00:00</time>
        <ele>22.0</ele>
      </trkpt>
      <trkpt lat="38.70092" lon="-9.260935">
        <time>1970-01-01T00:00:00+00:00</time>
        <ele>22.0</ele>
      </trkpt>
      <trkpt lat="38.701004" lon="-9.260986">
        <time>1970-01-01T00:00:00+00:00</time>
        <ele>22.0</ele>
      </trkpt>
      <trkpt lat="38.701303" lon="-9.261083">
        <time>1970-01-01T00:00:00+00:00</time>
        <ele>22.0</ele>
      </trkpt>
      <trkpt lat="38.701355" lon="-9.261094">
        <time>1970-01-01T00:00:00+00:00</time>
        <ele>22.0</ele>
      </trkpt>
      <trkpt lat="38.701496" lon="-9.261078">
        <time>1970-01-01T00:00:00+00:00</time>
        <ele>23.0</ele>
      </trkpt>
      <trkpt lat="38.701638" lon="-9.26115">
        <time>1970-01-01T00:00:00+00:00</time>
        <ele>23.0</ele>
      </trkpt>
      <trkpt lat="38.702033" lon="-9.261225">
        <time>1970-01-01T00:00:00+00:00</time>
        <ele>25.0</ele>
      </trkpt>
      <trkpt lat="38.702107" lon="-9.261209">
        <time>1970-01-01T00:00:00+00:00</time>
        <ele>26.0</ele>
      </trkpt>
      <trkpt lat="38.702178" lon="-9.261263">
        <time>1970-01-01T00:00:00+00:00</time>
        <ele>26.0</ele>
      </trkpt>
      <trkpt lat="38.702251" lon="-9.261289">
        <time>1970-01-01T00:00:00+00:00</time>
        <ele>26.0</ele>
      </trkpt>
      <trkpt lat="38.702318" lon="-9.26126">
        <time>1970-01-01T00:00:00+00:00</time>
        <ele>27.0</ele>
      </trkpt>
      <trkpt lat="38.702318" lon="-9.26126">
        <time>1970-01-01T00:00:00+00:00</time>
        <ele>27.0</ele>
      </trkpt>
      <trkpt lat="38.702251" lon="-9.261289">
        <time>1970-01-01T00:00:00+00:00</time>
        <ele>26.0</ele>
      </trkpt>
      <trkpt lat="38.702178" lon="-9.261263">
        <time>1970-01-01T00:00:00+00:00</time>
        <ele>26.0</ele>
      </trkpt>
      <trkpt lat="38.702107" lon="-9.261209">
        <time>1970-01-01T00:00:00+00:00</time>
        <ele>26.0</ele>
      </trkpt>
      <trkpt lat="38.702033" lon="-9.261225">
        <time>1970-01-01T00:00:00+00:00</time>
        <ele>25.0</ele>
      </trkpt>
      <trkpt lat="38.701638" lon="-9.26115">
        <time>1970-01-01T00:00:00+00:00</time>
        <ele>23.0</ele>
      </trkpt>
      <trkpt lat="38.701496" lon="-9.261078">
        <time>1970-01-01T00:00:00+00:00</time>
        <ele>23.0</ele>
      </trkpt>
      <trkpt lat="38.701355" lon="-9.261094">
        <time>1970-01-01T00:00:00+00:00</time>
        <ele>22.0</ele>
      </trkpt>
      <trkpt lat="38.701303" lon="-9.261083">
        <time>1970-01-01T00:00:00+00:00</time>
        <ele>22.0</ele>
      </trkpt>
      <trkpt lat="38.701004" lon="-9.260986">
        <time>1970-01-01T00:00:00+00:00</time>
        <ele>22.0</ele>
      </trkpt>
      <trkpt lat="38.70092" lon="-9.260935">
        <time>1970-01-01T00:00:00+00:00</time>
        <ele>22.0</ele>
      </trkpt>
      <trkpt lat="38.700819" lon="-9.260834">
        <time>1970-01-01T00:00:00+00:00</time>
        <ele>22.0</ele>
      </trkpt>
      <trkpt lat="38.700763" lon="-9.260675">
        <time>1970-01-01T00:00:00+00:00</time>
        <ele>23.0</ele>
      </trkpt>
      <trkpt lat="38.700742" lon="-9.26056">
        <time>1970-01-01T00:00:00+00:00</time>
        <ele>24.0</ele>
      </trkpt>
      <trkpt lat="38.700779" lon="-9.260195">
        <time>1970-01-01T00:00:00+00:00</time>
        <ele>27.0</ele>
      </trkpt>
      <trkpt lat="38.700337" lon="-9.260145">
        <time>1970-01-01T00:00:00+00:00</time>
        <ele>24.0</ele>
      </trkpt>
      <trkpt lat="38.700227" lon="-9.260152">
        <time>1970-01-01T00:00:00+00:00</time>
        <ele>21.0</ele>
      </trkpt>
      <trkpt lat="38.700114" lon="-9.260085">
        <time>1970-01-01T00:00:00+00:00</time>
        <ele>18.0</ele>
      </trkpt>
      <trkpt lat="38.700045" lon="-9.25991">
        <time>1970-01-01T00:00:00+00:00</time>
        <ele>16.0</ele>
      </trkpt>
      <trkpt lat="38.700037" lon="-9.259792">
        <time>1970-01-01T00:00:00+00:00</time>
        <ele>16.0</ele>
      </trkpt>
      <trkpt lat="38.700055" lon="-9.259547">
        <time>1970-01-01T00:00:00+00:00</time>
        <ele>15.0</ele>
      </trkpt>
      <trkpt lat="38.70036" lon="-9.258703">
        <time>1970-01-01T00:00:00+00:00</time>
        <ele>20.0</ele>
      </trkpt>
      <trkpt lat="38.700434" lon="-9.258471">
        <time>1970-01-01T00:00:00+00:00</time>
        <ele>19.0</ele>
      </trkpt>
      <trkpt lat="38.700477" lon="-9.258251">
        <time>1970-01-01T00:00:00+00:00</time>
        <ele>18.0</ele>
      </trkpt>
      <trkpt lat="38.700493" lon="-9.257999">
        <time>1970-01-01T00:00:00+00:00</time>
        <ele>17.0</ele>
      </trkpt>
      <trkpt lat="38.7005" lon="-9.256995">
        <time>1970-01-01T00:00:00+00:00</time>
        <ele>13.0</ele>
      </trkpt>
      <trkpt lat="38.700536" lon="-9.256707">
        <time>1970-01-01T00:00:00+00:00</time>
        <ele>13.0</ele>
      </trkpt>
      <trkpt lat="38.700621" lon="-9.256426">
        <time>1970-01-01T00:00:00+00:00</time>
        <ele>14.0</ele>
      </trkpt>
      <trkpt lat="38.700721" lon="-9.256209">
        <time>1970-01-01T00:00:00+00:00</time>
        <ele>15.0</ele>
      </trkpt>
      <trkpt lat="38.700826" lon="-9.256038">
        <time>1970-01-01T00:00:00+00:00</time>
        <ele>13.0</ele>
      </trkpt>
      <trkpt lat="38.700997" lon="-9.255781">
        <time>1970-01-01T00:00:00+00:00</time>
        <ele>11.0</ele>
      </trkpt>
      <trkpt lat="38.70135" lon="-9.255264">
        <time>1970-01-01T00:00:00+00:00</time>
        <ele>11.0</ele>
      </trkpt>
      <trkpt lat="38.701525" lon="-9.254973">
        <time>1970-01-01T00:00:00+00:00</time>
        <ele>9.0</ele>
      </trkpt>
      <trkpt lat="38.701636" lon="-9.25472">
        <time>1970-01-01T00:00:00+00:00</time>
        <ele>7.0</ele>
      </trkpt>
      <trkpt lat="38.701728" lon="-9.254229">
        <time>1970-01-01T00:00:00+00:00</time>
        <ele>6.0</ele>
      </trkpt>
      <trkpt lat="38.701726" lon="-9.253945">
        <time>1970-01-01T00:00:00+00:00</time>
        <ele>5.0</ele>
      </trkpt>
      <trkpt lat="38.701693" lon="-9.253545">
        <time>1970-01-01T00:00:00+00:00</time>
        <ele>5.0</ele>
      </trkpt>
      <trkpt lat="38.701782" lon="-9.253589">
        <time>1970-01-01T00:00:00+00:00</time>
        <ele>5.0</ele>
      </trkpt>
      <trkpt lat="38.701924" lon="-9.253554">
        <time>1970-01-01T00:00:00+00:00</time>
        <ele>5.0</ele>
      </trkpt>
      <trkpt lat="38.701974" lon="-9.253574">
        <time>1970-01-01T00:00:00+00:00</time>
        <ele>5.0</ele>
      </trkpt>
      <trkpt lat="38.702122" lon="-9.253624">
        <time>1970-01-01T00:00:00+00:00</time>
        <ele>5.0</ele>
      </trkpt>
      <trkpt lat="38.702149" lon="-9.253745">
        <time>1970-01-01T00:00:00+00:00</time>
        <ele>6.0</ele>
      </trkpt>
      <trkpt lat="38.702183" lon="-9.254025">
        <time>1970-01-01T00:00:00+00:00</time>
        <ele>8.0</ele>
      </trkpt>
      <trkpt lat="38.702237" lon="-9.254387">
        <time>1970-01-01T00:00:00+00:00</time>
        <ele>8.0</ele>
      </trkpt>
      <trkpt lat="38.702273" lon="-9.254873">
        <time>1970-01-01T00:00:00+00:00</time>
        <ele>8.0</ele>
      </trkpt>
      <trkpt lat="38.702346" lon="-9.255436">
        <time>1970-01-01T00:00:00+00:00</time>
        <ele>8.0</ele>
      </trkpt>
      <trkpt lat="38.70262" lon="-9.255977">
        <time>1970-01-01T00:00:00+00:00</time>
        <ele>6.0</ele>
      </trkpt>
      <trkpt lat="38.702699" lon="-9.255978">
        <time>1970-01-01T00:00:00+00:00</time>
        <ele>6.0</ele>
      </trkpt>
      <trkpt lat="38.702776" lon="-9.256039">
        <time>1970-01-01T00:00:00+00:00</time>
        <ele>6.0</ele>
      </trkpt>
      <trkpt lat="38.7028" lon="-9.256089">
        <time>1970-01-01T00:00:00+00:00</time>
        <ele>6.0</ele>
      </trkpt>
      <trkpt lat="38.702808" lon="-9.256204">
        <time>1970-01-01T00:00:00+00:00</time>
        <ele>6.0</ele>
      </trkpt>
      <trkpt lat="38.702993" lon="-9.256472">
        <time>1970-01-01T00:00:00+00:00</time>
        <ele>9.0</ele>
      </trkpt>
      <trkpt lat="38.703312" lon="-9.25662">
        <time>1970-01-01T00:00:00+00:00</time>
        <ele>14.0</ele>
      </trkpt>
      <trkpt lat="38.703598" lon="-9.25673">
        <time>1970-01-01T00:00:00+00:00</time>
        <ele>14.0</ele>
      </trkpt>
      <trkpt lat="38.703614" lon="-9.256631">
        <time>1970-01-01T00:00:00+00:00</time>
        <ele>12.0</ele>
      </trkpt>
      <trkpt lat="38.703665" lon="-9.256548">
        <time>1970-01-01T00:00:00+00:00</time>
        <ele>10.0</ele>
      </trkpt>
      <trkpt lat="38.704043" lon="-9.256681">
        <time>1970-01-01T00:00:00+00:00</time>
        <ele>12.0</ele>
      </trkpt>
      <trkpt lat="38.704234" lon="-9.25675">
        <time>1970-01-01T00:00:00+00:00</time>
        <ele>11.0</ele>
      </trkpt>
    </trkseg>
  </trk>
</gpx>
